Change the Weather History Date:

Tuesday, March 19, 2013

  Actual Average Record
Temperature  
Mean Temperature 48 °F -  
Max Temperature 57 °F 60 °F 77 °F (2005)
Min Temperature 39 °F 43 °F 35 °F (2003)
Degree Days  
Heating Degree Days 17    
Moisture  
Dew Point 38 °F    
Average Humidity 70    
Maximum Humidity 93    
Minimum Humidity 41    
Precipitation  
Precipitation 0.00 in - - ()
Sea Level Pressure  
Sea Level Pressure 29.64 in    
Wind  
Wind Speed 6 mph ()    
Max Wind Speed 15 mph    
Max Gust Speed -    
Visibility 6.2 miles    
Events Rain    
Averages and records for this station are not official NWS values.
T = Trace of Precipitation, MM = Missing Value Source: Averaged Metar Reports

Daily Weather History Graph

Daily Weather History Graph

Search for Another Location

Airport or City:

Trip Planner

Search our weather history database for the weather conditions in past years. The results will help you decide how hot, cold, wet, or windy it might be!

Date:

Astronomy

Mar. 19, 2013 Rise Set
Actual Time 7:06 AM CET 7:12 PM CET
Civil Twilight 6:38 AM CET 7:41 PM CET
Nautical Twilight 6:04 AM CET 8:14 PM CET
Astronomical Twilight 5:30 AM CET 8:48 PM CET
Moon 11:34 AM CET (3/19) 1:57 AM CET (3/19)
Length of Visible Light 13h 03m
Length of Day
12h 06m
Waxing Crescent, 48% of the Moon is Illuminated
Mar 19
Waxing Crescent
Mar 19
First Quarter
Mar 27
Full
Apr 3
Last Quarter
Apr 10
New

Hourly Weather History & Observations

Time (CET) Temp. Windchill Dew Point Humidity Pressure Visibility Wind Dir Wind Speed Gust Speed Precip Events Conditions
12:00 AM 42.8 °F 37.5 °F 39.2 °F 87% 29.74 in 6.2 mi WSW 9.2 mph - N/A   Mostly Cloudy
12:30 AM 42.8 °F 35.4 °F 39.2 °F 87% 29.74 in 6.2 mi West 15.0 mph - N/A Rain Rain
1:00 AM 42.8 °F 35.8 °F 39.2 °F 87% 29.74 in 6.2 mi West 13.8 mph - N/A Rain Light Rain
1:30 AM 42.8 °F 36.6 °F 39.2 °F 87% 29.74 in 6.2 mi WNW 11.5 mph - N/A Rain Light Rain
2:00 AM 42.8 °F 37.5 °F 39.2 °F 87% 29.74 in 6.2 mi West 9.2 mph - N/A   Overcast
2:30 AM 42.8 °F 38.6 °F 39.2 °F 87% 29.74 in 6.2 mi WSW 6.9 mph - N/A   Overcast
3:00 AM 42.8 °F 40.1 °F 39.2 °F 87% 29.74 in 6.2 mi SSW 4.6 mph - N/A Rain Light Rain
3:30 AM 42.8 °F - 39.2 °F 87% 29.74 in 6.2 mi SW 2.3 mph - N/A Rain Light Rain
4:00 AM 42.8 °F 41.1 °F 39.2 °F 87% 29.71 in 6.2 mi South 3.5 mph - N/A   Overcast
4:30 AM 41.0 °F 38.0 °F 39.2 °F 93% 29.71 in 6.2 mi South 4.6 mph - N/A   Overcast
5:00 AM 41.0 °F 39.0 °F 39.2 °F 93% 29.71 in 6.2 mi SSE 3.5 mph - N/A   Overcast
5:30 AM 41.0 °F 38.0 °F 39.2 °F 93% 29.71 in 6.2 mi SSE 4.6 mph - N/A   Mostly Cloudy
6:00 AM 41.0 °F 36.4 °F 39.2 °F 93% 29.71 in 6.2 mi SSE 6.9 mph - N/A   Mostly Cloudy
6:30 AM 39.2 °F 35.0 °F 37.4 °F 93% 29.71 in 6.2 mi SSE 5.8 mph - N/A   Mostly Cloudy
7:00 AM 39.2 °F 35.0 °F 37.4 °F 93% 29.68 in 6.2 mi SSE 5.8 mph - N/A   Scattered Clouds
7:30 AM 39.2 °F 35.9 °F 37.4 °F 93% 29.68 in 6.2 mi SSE 4.6 mph - N/A   Scattered Clouds
8:00 AM 39.2 °F 37.0 °F 37.4 °F 93% 29.68 in 6.2 mi SE 3.5 mph - N/A   Mostly Cloudy
8:30 AM 41.0 °F 38.0 °F 39.2 °F 93% 29.68 in - ESE 4.6 mph - N/A   Clear
9:00 AM 42.8 °F 38.6 °F 39.2 °F 87% 29.68 in - SE 6.9 mph - N/A   Clear
9:30 AM 46.4 °F 42.9 °F 39.2 °F 76% 29.68 in - SE 6.9 mph - N/A   Clear
10:05 AM 50.0 °F - 39.2 °F 66% 29.68 in - SE 6.9 mph - N/A   Clear
10:30 AM 50.0 °F - 37.4 °F 62% 29.65 in - ESE 5.8 mph - N/A   Clear
11:00 AM 51.8 °F - 37.4 °F 58% 29.65 in - ESE 8.1 mph - N/A   Clear
11:30 AM 53.6 °F - 37.4 °F 54% 29.65 in - East 8.1 mph - N/A   Clear
12:00 PM 53.6 °F - 37.4 °F 54% 29.65 in - SE 5.8 mph - N/A   Clear
12:30 PM 55.4 °F - 35.6 °F 47% 29.62 in 6.2 mi ENE 4.6 mph - N/A   Mostly Cloudy
1:00 PM 53.6 °F - 35.6 °F 51% 29.62 in 6.2 mi Variable 1.2 mph - N/A   Mostly Cloudy
1:30 PM 55.4 °F - 37.4 °F 51% 29.62 in 6.2 mi NE 3.5 mph - N/A   Mostly Cloudy
2:00 PM 57.2 °F - 37.4 °F 48% 29.59 in 6.2 mi NE 3.5 mph - N/A   Mostly Cloudy
2:30 PM 57.2 °F - 35.6 °F 44% 29.59 in 6.2 mi ENE 4.6 mph - N/A   Mostly Cloudy
3:00 PM 57.2 °F - 35.6 °F 44% 29.56 in 6.2 mi ENE 4.6 mph - N/A   Mostly Cloudy
3:30 PM 57.2 °F - 35.6 °F 44% 29.56 in 6.2 mi ENE 5.8 mph - N/A   Mostly Cloudy
4:00 PM 57.2 °F - 37.4 °F 48% 29.53 in 6.2 mi ENE 6.9 mph - N/A   Mostly Cloudy
4:30 PM 57.2 °F - 35.6 °F 44% 29.53 in 6.2 mi East 5.8 mph - N/A   Mostly Cloudy
5:30 PM 57.2 °F - 33.8 °F 41% 29.53 in 6.2 mi East 5.8 mph - N/A   Mostly Cloudy
6:00 PM 55.4 °F - 35.6 °F 47% 29.53 in 6.2 mi East 5.8 mph - N/A   Mostly Cloudy
6:30 PM 55.4 °F - 37.4 °F 51% 29.53 in 6.2 mi East 5.8 mph - N/A   Overcast
7:00 PM 53.6 °F - 37.4 °F 54% 29.53 in 6.2 mi East 3.5 mph - N/A   Mostly Cloudy
7:30 PM 51.8 °F - 37.4 °F 58% 29.53 in 6.2 mi East 3.5 mph - N/A   Mostly Cloudy
8:00 PM 51.8 °F - 35.6 °F 54% 29.53 in 6.2 mi East 3.5 mph - N/A   Mostly Cloudy
8:30 PM 50.0 °F - 37.4 °F 62% 29.53 in 6.2 mi ESE 3.5 mph - N/A   Mostly Cloudy
9:00 PM 50.0 °F - 37.4 °F 62% 29.56 in 6.2 mi SE 4.6 mph - N/A   Mostly Cloudy
9:30 PM 50.0 °F - 37.4 °F 62% 29.56 in 6.2 mi SE 5.8 mph - N/A   Overcast
10:00 PM 50.0 °F - 37.4 °F 62% 29.56 in 6.2 mi Variable 2.3 mph - N/A   Overcast
10:30 PM 50.0 °F - 39.2 °F 66% 29.59 in 6.2 mi WNW 9.2 mph - N/A   Overcast
11:00 PM 48.2 °F - 42.8 °F 82% 29.59 in 6.2 mi NW 11.5 mph - N/A   Overcast
11:30 PM 48.2 °F - 42.8 °F 82% 29.59 in 6.2 mi NNW 11.5 mph - N/A Rain Light Rain